Weather History for KLEE - November, 2011

Change the Weather History Date:

Saturday, November 12, 2011

  Actual Average Record
Temperature  
Mean Temperature 59 °F -  
Max Temperature 73 °F 75 °F 87 °F (2002)
Min Temperature 45 °F 53 °F 38 °F (1991)
Degree Days  
Heating Degree Days 6    
Growing Degree Days 9 (Base 50)    
Moisture  
Dew Point 45 °F    
Average Humidity 60    
Maximum Humidity 86    
Minimum Humidity 39    
Precipitation  
Precipitation 0.00 in - - ()
Sea Level Pressure  
Sea Level Pressure 30.27 in    
Wind  
Wind Speed 5 mph (ENE)    
Max Wind Speed 8 mph    
Max Gust Speed 17 mph    
Visibility 10 miles    
Events      
Averages and records for this station are not official NWS values.
T = Trace of Precipitation, MM = Missing Value Source: NWS Daily Summary

Daily Weather History Graph

Daily Weather History Graph

Search for Another Location

Airport or City:

Trip Planner

Search our weather history database for the weather conditions in past years. The results will help you decide how hot, cold, wet, or windy it might be!

Date:

Astronomy

Nov. 12, 2011 Rise Set
Actual Time 6:47 AM EST 5:34 PM EST
Civil Twilight 6:22 AM EST 5:59 PM EST
Nautical Twilight 5:54 AM EST 6:28 PM EST
Astronomical Twilight 5:26 AM EST 6:56 PM EST
Moon 6:58 PM EST (11/12) 8:20 AM EST (11/12)
Length of Visible Light 11h 36m
Length of Day
10h 47m
Full, 97% of the Moon is Illuminated
Nov 12
Full
Nov 18
Last Quarter
Nov 25
New
Dec 2
First Quarter
Dec 10
Full

Hourly Weather History & Observations

Time (EST) Temp. Windchill Dew Point Humidity Pressure Visibility Wind Dir Wind Speed Gust Speed Precip Events Conditions
12:53 AM 48.0 °F - 39.9 °F 74% 30.25 in 10.0 mi NNE 4.6 mph - N/A   Clear
1:53 AM 46.0 °F - 41.0 °F 83% 30.24 in 10.0 mi Calm Calm - N/A   Clear
2:53 AM 46.9 °F - 37.9 °F 71% 30.25 in 10.0 mi Calm Calm - N/A   Clear
3:53 AM 45.0 °F 42.6 °F 37.0 °F 74% 30.25 in 10.0 mi NNE 4.6 mph - N/A   Clear
4:53 AM 46.0 °F 42.5 °F 37.0 °F 71% 30.26 in 10.0 mi North 6.9 mph - N/A   Clear
5:53 AM 45.0 °F - 36.0 °F 71% 30.27 in 10.0 mi Calm Calm - N/A   Clear
7:53 AM 50.0 °F - 35.1 °F 57% 30.30 in 10.0 mi NNE 5.8 mph - N/A   Clear
8:53 AM 55.9 °F - 36.0 °F 47% 30.30 in 10.0 mi NNE 6.9 mph - N/A   Clear
9:53 AM 63.0 °F - 39.9 °F 43% 30.32 in 10.0 mi North 8.1 mph - N/A   Clear
10:53 AM 68.0 °F - 45.0 °F 43% 30.31 in 10.0 mi NE 6.9 mph - N/A   Clear
11:53 AM 70.0 °F - 48.0 °F 46% 30.30 in 10.0 mi ENE 6.9 mph - N/A   Clear
12:53 PM 72.0 °F - 48.0 °F 43% 30.27 in 10.0 mi Variable 5.8 mph 17.3 mph N/A   Clear
1:53 PM 73.0 °F - 46.9 °F 39% 30.25 in 10.0 mi East 6.9 mph - N/A   Clear
2:53 PM 73.9 °F - 48.9 °F 41% 30.24 in 10.0 mi ENE 6.9 mph - N/A   Clear
3:53 PM 73.9 °F - 48.0 °F 40% 30.24 in 10.0 mi East 4.6 mph - N/A   Partly Cloudy
4:53 PM 71.1 °F - 50.0 °F 47% 30.24 in 10.0 mi ESE 8.1 mph - N/A   Clear
5:53 PM 66.9 °F - 51.1 °F 57% 30.25 in 10.0 mi East 6.9 mph - N/A   Clear
6:53 PM 64.0 °F - 51.1 °F 63% 30.27 in 10.0 mi East 6.9 mph - N/A   Clear
7:53 PM 64.0 °F - 51.1 °F 63% 30.28 in 10.0 mi East 6.9 mph - N/A   Clear
8:53 PM 61.0 °F - 51.1 °F 70% 30.29 in 10.0 mi East 4.6 mph - N/A   Clear
9:53 PM 60.1 °F - 51.1 °F 72% 30.29 in 10.0 mi East 4.6 mph - N/A   Clear
10:53 PM 57.9 °F - 52.0 °F 81% 30.27 in 10.0 mi Calm Calm - N/A   Clear
11:53 PM 55.0 °F - 51.1 °F 86% 30.25 in 10.0 mi ENE 4.6 mph - N/A   Clear